FW6610 Weather Reports


time (UTC)temp
F
wind
direction
speed
knots
gust
knots
rain 1hr
in
rain 24hr
in
rain mn
in
humidity
%
barometer
mb
20260905005530 66 0 0.0 0.0 0.00 0.00 0.00 89 1010.9
20260905005030 66 0 0.0 0.0 0.00 0.00 0.00 89 1011.0
20260905004550 67 0 0.0 0.0 0.00 0.00 0.00 89 1010.9
20260905004030 67 0 0.0 0.0 0.00 0.00 0.00 89 1011.1
20260905003531 67 0 0.0 0.0 0.00 0.00 0.00 88 1011.0
20260905003046 67 0 0.0 0.0 0.00 0.00 0.00 88 1010.8
20260905002529 68 0 0.0 0.0 0.00 0.00 0.00 87 1010.7
20260905002032 68 0 0.0 0.0 0.00 0.00 0.00 87 1010.7
20260905001601 68 0 0.0 0.0 0.00 0.00 0.00 86 1010.6
20260905001033 69 0 0.0 0.0 0.00 0.00 0.00 85 1010.6
20260905000531 69 0 0.0 0.0 0.00 0.00 0.00 85 1010.4
20260904235529 70 0 0.0 0.9 0.00 0.00 0.00 81 1010.3
20260904235032 70 0 0.0 2.6 0.00 0.00 0.00 80 1010.2
20260904234546 70 0 0.0 2.6 0.00 0.00 0.00 81 1010.3
20260904234029 70 0 0.0 0.9 0.00 0.00 0.00 82 1010.4
20260904233530 69 0 0.0 0.9 0.00 0.00 0.00 82 1010.3
20260904233114 69 0 0.0 0.0 0.00 0.00 0.00 84 1010.3
20260904232531 70 0 0.0 0.0 0.00 0.00 0.00 84 1010.3
20260904232031 70 0 0.0 0.0 0.00 0.00 0.00 84 1010.4
20260904231602 70 0 0.0 0.0 0.00 0.00 0.00 82 1010.2
20260904231031 71 0 0.0 0.0 0.00 0.00 0.00 82 1010.3
20260904230531 71 0 0.0 0.0 0.00 0.00 0.00 83 1010.2
20260904230051 72 0 0.0 0.0 0.00 0.00 0.00 82 1010.1
20260904225529 72 0 0.0 0.0 0.00 0.00 0.00 81 1010.1
20260904225032 73 0 0.0 0.9 0.00 0.00 0.00 81 1010.2
20260904224608 74 0 0.0 0.9 0.00 0.00 0.00 79 1010.2
20260904224030 74 0 0.0 0.9 0.00 0.00 0.00 78 1010.3
20260904223529 75 0 0.0 0.9 0.00 0.00 0.00 77 1010.1
20260904223056 75 0 0.0 0.9 0.00 0.00 0.00 75 1009.9
20260904222531 76 0 0.0 0.9 0.00 0.00 0.00 72 1010.0
20260904222029 77 0 0.0 0.9 0.00 0.00 0.00 69 1010.0
20260904221555 78 309 0.0 0.9 0.00 0.00 0.00 66 1009.9
20260904221029 78 269 0.0 3.5 0.00 0.00 0.00 64 1009.9
20260904220530 79 0 0.0 3.5 0.00 0.00 0.00 64 1010.0
20260904220053 79 26 0.9 3.5 0.00 0.00 0.00 62 1009.9
20260904215528 79 290 0.9 4.3 0.00 0.00 0.00 61 1009.8
20260904215032 79 281 1.7 4.3 0.00 0.00 0.00 60 1009.9
20260904214602 79 303 1.7 4.3 0.00 0.00 0.00 61 1010.0
20260904214027 80 310 0.0 2.6 0.00 0.00 0.00 62 1010.1
20260904213533 79 19 0.9 3.5 0.00 0.00 0.00 60 1010.1
20260904213056 78 306 0.9 3.5 0.00 0.00 0.00 59 1010.1
20260904212532 78 320 1.7 3.5 0.00 0.00 0.00 58 1010.1
20260904212028 78 326 0.9 4.3 0.00 0.00 0.00 58 1010.1
20260904211552 79 37 0.9 5.2 0.00 0.00 0.00 60 1010.1
20260904211031 79 284 1.7 5.2 0.00 0.00 0.00 57 1010.2
20260904210530 80 287 1.7 5.2 0.00 0.00 0.00 56 1010.1
20260904205531 80 333 2.6 10.4 0.00 0.00 0.00 55 1010.1
20260904205029 80 333 4.3 10.4 0.00 0.00 0.00 54 1010.1
20260904204557 80 298 2.6 9.6 0.00 0.00 0.00 56 1010.1
20260904204034 80 326 1.7 6.1 0.00 0.00 0.00 57 1010.1
20260904203530 80 6 1.7 4.3 0.00 0.00 0.00 57 1010.1
20260904203052 80 312 1.7 6.1 0.00 0.00 0.00 56 1010.0
20260904202530 81 342 1.7 6.1 0.00 0.00 0.00 55 1010.0
20260904202029 82 230 1.7 6.1 0.00 0.00 0.00 56 1009.9
20260904201546 81 310 1.7 7.8 0.00 0.00 0.00 57 1010.1
20260904201029 81 53 1.7 7.8 0.00 0.00 0.00 56 1010.1
20260904200529 82 340 2.6 7.8 0.00 0.00 0.00 56 1010.1
20260904200054 82 338 2.6 7.0 0.00 0.00 0.00 56 1010.1
20260904195531 81 20 2.6 8.7 0.00 0.00 0.00 58 1010.1
20260904195030 81 281 4.3 8.7 0.00 0.00 0.00 55 1010.2
20260904194551 81 25 3.5 7.0 0.00 0.00 0.00 57 1010.1
20260904194030 81 338 2.6 7.0 0.00 0.00 0.00 57 1010.2
20260904193530 80 304 2.6 7.0 0.00 0.00 0.00 59 1010.2
20260904193100 80 328 2.6 8.7 0.00 0.00 0.00 57 1010.2
20260904192530 80 314 2.6 8.7 0.00 0.00 0.00 57 1010.1
20260904192031 81 173 3.5 6.1 0.00 0.00 0.00 55 1010.3
20260904191555 81 308 1.7 6.1 0.00 0.00 0.00 55 1010.3
20260904191031 81 8 3.5 6.1 0.00 0.00 0.00 53 1010.3
20260904190533 81 319 2.6 7.0 0.00 0.00 0.00 54 1010.2
20260904190052 81 14 1.7 7.0 0.00 0.00 0.00 57 1010.1
20260904185530 80 355 2.6 7.0 0.00 0.00 0.00 57 1010.1
20260904185031 80 278 2.6 7.0 0.00 0.00 0.00 54 1010.1
20260904184553 81 299 1.7 8.7 0.00 0.00 0.00 53 1010.4
20260904184031 81 246 2.6 8.7 0.00 0.00 0.00 53 1010.4
20260904183532 81 300 3.5 8.7 0.00 0.00 0.00 54 1010.3
20260904183054 81 316 2.6 10.4 0.00 0.00 0.00 54 1010.5
20260904182531 81 290 4.3 10.4 0.00 0.00 0.00 53 1010.4
20260904182033 81 322 3.5 11.3 0.00 0.00 0.00 52 1010.7
20260904181552 81 277 4.3 11.3 0.00 0.00 0.00 55 1010.7
20260904181030 82 311 3.5 7.8 0.00 0.00 0.00 55 1010.6
20260904180534 82 320 1.7 9.6 0.00 0.00 0.00 53 1010.6
20260904180103 81 345 1.7 9.6 0.00 0.00 0.00 54 1010.5
20260904175534 81 298 3.5 9.6 0.00 0.00 0.00 55 1010.5
20260904175030 81 352 2.6 9.6 0.00 0.00 0.00 56 1010.5
20260904174556 81 278 3.5 9.6 0.00 0.00 0.00 54 1010.4
20260904174028 81 287 2.6 6.1 0.00 0.00 0.00 57 1010.4
20260904173531 81 335 2.6 7.0 0.00 0.00 0.00 54 1010.5
20260904173056 81 288 1.7 7.0 0.00 0.00 0.00 57 1010.4
20260904172530 81 308 3.5 10.4 0.00 0.00 0.00 56 1010.4
20260904172031 81 318 4.3 10.4 0.00 0.00 0.00 55 1010.5
20260904171551 81 324 3.5 7.8 0.00 0.00 0.00 54 1010.6
20260904171030 81 345 2.6 6.1 0.00 0.00 0.00 57 1010.6
20260904170532 81 314 2.6 7.8 0.00 0.00 0.00 57 1010.7
20260904170047 81 311 2.6 9.6 0.00 0.00 0.00 57 1010.7
20260904165530 80 311 2.6 10.4 0.00 0.00 0.00 54 1010.7
20260904165030 80 274 4.3 10.4 0.00 0.00 0.00 55 1010.7
20260904164553 80 349 3.5 8.7 0.00 0.00 0.00 58 1010.9
20260904164027 80 333 3.5 7.0 0.00 0.00 0.00 58 1010.7
20260904163530 80 238 3.5 7.0 0.00 0.00 0.00 56 1010.7
20260904163052 80 310 2.6 8.7 0.00 0.00 0.00 58 1010.9
20260904162533 80 356 2.6 8.7 0.00 0.00 0.00 59 1010.8
20260904162030 80 299 2.6 7.0 0.00 0.00 0.00 60 1010.8
20260904161558 80 41 2.6 7.0 0.00 0.00 0.00 59 1010.8
20260904161033 80 248 2.6 7.8 0.00 0.00 0.00 62 1010.8
20260904160534 80 354 1.7 7.8 0.00 0.00 0.00 63 1010.9
20260904160056 80 345 2.6 9.6 0.00 0.00 0.00 61 1011.3
20260904155529 79 285 2.6 9.6 0.00 0.00 0.00 67 1011.2
20260904155029 79 53 4.3 9.6 0.00 0.00 0.00 62 1011.2
20260904154554 79 340 4.3 9.6 0.00 0.00 0.00 63 1011.0
20260904154030 79 350 3.5 8.7 0.00 0.00 0.00 63 1011.3
20260904153528 79 275 0.9 7.8 0.00 0.00 0.00 70 1011.3
20260904153053 78 306 1.7 7.8 0.00 0.00 0.00 66 1011.3
20260904152529 78 308 3.5 7.8 0.00 0.00 0.00 68 1011.4
20260904152031 77 9 3.5 7.0 0.00 0.00 0.00 69 1011.6
20260904151551 77 255 2.6 6.1 0.00 0.00 0.00 72 1011.5
20260904151030 77 286 1.7 7.0 0.00 0.00 0.00 72 1011.6
20260904150530 76 13 2.6 7.0 0.00 0.00 0.00 76 1011.5
20260904150045 76 250 0.0 2.6 0.00 0.00 0.00 81 1011.5
20260904145529 75 0 0.0 4.3 0.00 0.00 0.00 79 1011.5
20260904145029 75 0 0.0 4.3 0.00 0.00 0.00 76 1011.6
20260904144600 75 312 0.0 2.6 0.00 0.00 0.00 81 1011.6
20260904144031 75 51 0.0 2.6 0.00 0.00 0.00 81 1011.4
20260904143530 75 0 0.0 2.6 0.00 0.00 0.00 80 1011.6
20260904143059 74 314 0.9 2.6 0.00 0.00 0.00 83 1011.6
20260904142527 73 80 0.9 2.6 0.00 0.00 0.00 86 1011.7
20260904142027 72 299 0.0 2.6 0.00 0.00 0.00 88 1011.7
20260904141554 72 304 0.0 3.5 0.00 0.00 0.00 93 1011.8
20260904141030 72 0 0.9 5.2 0.00 0.00 0.00 93 1011.6
20260904140529 72 0 0.9 5.2 0.00 0.00 0.00 92 1011.6
20260904140049 72 304 0.9 6.1 0.00 0.00 0.00 91 1011.7
20260904135530 72 336 1.7 6.1 0.00 0.00 0.00 91 1011.5
20260904135029 71 338 1.7 5.2 0.00 0.00 0.00 91 1011.6
20260904134559 71 0 0.0 3.5 0.00 0.00 0.00 93 1011.6
20260904134031 71 16 0.9 4.3 0.00 0.00 0.00 94 1011.6
20260904133535 70 13 1.7 4.3 0.00 0.00 0.00 95 1011.4
20260904133056 70 120 0.9 4.3 0.00 0.00 0.00 97 1011.6
20260904132527 69 72 0.9 4.3 0.00 0.00 0.00 98 1011.7
20260904132028 69 249 0.0 3.5 0.00 0.00 0.00 100 1011.5
20260904131553 68 291 0.9 4.3 0.00 0.00 0.00 100 1011.7
20260904131030 68 310 1.7 4.3 0.00 0.00 0.00 100 1011.6
20260904130530 68 133 0.9 3.5 0.00 0.00 0.00 100 1011.5
20260904130047 67 0 0.9 3.5 0.00 0.00 0.00 100 1011.5
20260904125529 67 0 0.9 3.5 0.00 0.00 0.00 100 1011.7
20260904125029 66 354 0.0 2.6 0.00 0.00 0.00 100 1011.5
20260904124544 66 251 0.0 2.6 0.00 0.00 0.00 100 1011.7
20260904124028 66 19 0.0 1.7 0.00 0.00 0.00 100 1011.6
20260904123530 65 0 0.0 0.0 0.00 0.00 0.00 100 1011.7
20260904123053 65 0 0.0 0.0 0.00 0.00 0.00 100 1011.8
20260904122531 64 0 0.0 0.0 0.00 0.00 0.00 100 1011.8
20260904122030 64 0 0.0 0.0 0.00 0.00 0.00 100 1011.8
20260904121553 64 0 0.0 0.0 0.00 0.00 0.00 100 1011.8
20260904121030 63 0 0.0 0.0 0.00 0.00 0.00 100 1011.7
20260904120531 63 0 0.0 0.0 0.00 0.00 0.00 100 1011.8
20260904120048 63 0 0.0 0.0 0.00 0.00 0.00 100 1011.7
20260904115529 63 0 0.0 0.0 0.00 0.00 0.00 100 1011.7
20260904115032 62 0 0.0 0.0 0.00 0.00 0.00 100 1011.6
20260904114545 62 0 0.0 0.0 0.00 0.00 0.00 100 1011.6
20260904114031 62 0 0.0 0.0 0.00 0.00 0.00 100 1011.5
20260904113530 62 0 0.0 0.0 0.00 0.00 0.00 100 1011.3
20260904113045 62 0 0.0 0.0 0.00 0.00 0.00 99 1011.5
20260904112527 61 0 0.0 0.0 0.00 0.00 0.00 99 1011.3
20260904112029 61 0 0.0 0.0 0.00 0.00 0.00 99 1011.3
20260904111546 61 0 0.0 0.0 0.00 0.00 0.00 99 1011.3
20260904111027 61 0 0.0 0.0 0.00 0.00 0.00 99 1011.2
20260904110530 61 0 0.0 0.0 0.00 0.00 0.00 99 1011.1
20260904110051 61 0 0.0 0.0 0.00 0.00 0.00 99 1011.1
20260904105531 61 0 0.0 0.0 0.00 0.00 0.00 99 1011.1
20260904105029 61 0 0.0 0.0 0.00 0.00 0.00 99 1011.1
20260904104547 61 0 0.0 0.0 0.00 0.00 0.00 99 1011.0
20260904104030 61 0 0.0 0.0 0.00 0.00 0.00 99 1011.1
20260904103529 61 0 0.0 0.0 0.00 0.00 0.00 99 1011.2
20260904103044 61 0 0.0 0.0 0.00 0.00 0.00 99 1011.1
20260904102530 61 0 0.0 0.0 0.00 0.00 0.00 99 1011.2
20260904102029 61 0 0.0 0.0 0.00 0.00 0.00 99 1011.1
20260904101552 61 0 0.0 0.0 0.00 0.00 0.00 99 1011.1
20260904101031 61 0 0.0 0.0 0.00 0.00 0.00 99 1011.0
20260904100530 62 0 0.0 0.0 0.00 0.00 0.00 99 1010.9
20260904100053 62 0 0.0 0.0 0.00 0.00 0.00 99 1010.9
20260904095530 62 0 0.0 0.0 0.00 0.00 0.00 99 1010.8
20260904095030 62 0 0.0 0.0 0.00 0.00 0.00 99 1010.9
20260904094546 62 0 0.0 0.0 0.00 0.00 0.00 99 1010.7
20260904094029 63 0 0.0 0.0 0.00 0.00 0.00 99 1010.7
20260904093530 63 0 0.0 0.0 0.00 0.00 0.00 99 1010.7
20260904093052 63 0 0.0 0.0 0.00 0.00 0.00 99 1010.7
20260904092527 63 0 0.0 0.0 0.00 0.00 0.00 99 1010.7
20260904092031 63 0 0.0 0.0 0.00 0.00 0.00 99 1010.8
20260904091556 64 0 0.0 0.0 0.00 0.00 0.00 99 1010.8
20260904091031 64 0 0.0 0.0 0.00 0.00 0.00 99 1010.6
20260904090530 64 0 0.0 0.0 0.00 0.00 0.00 99 1010.5
20260904090046 64 0 0.0 0.0 0.00 0.00 0.00 99 1010.6
20260904085529 64 0 0.0 0.0 0.00 0.00 0.00 99 1010.7
20260904085031 64 0 0.0 0.0 0.00 0.00 0.00 99 1010.6
20260904084557 64 0 0.0 0.0 0.00 0.00 0.00 99 1010.7
20260904084029 64 0 0.0 0.0 0.00 0.00 0.00 99 1010.7
20260904083531 64 0 0.0 0.0 0.00 0.00 0.00 99 1010.6
20260904083052 64 0 0.0 0.0 0.00 0.00 0.00 99 1010.4
20260904082530 64 0 0.0 0.0 0.00 0.00 0.00 99 1010.5
20260904082032 64 0 0.0 0.0 0.00 0.00 0.00 99 1010.5
20260904081545 64 0 0.0 0.0 0.00 0.00 0.00 99 1010.4
20260904081029 64 0 0.0 0.0 0.00 0.00 0.00 99 1010.4
20260904080529 64 0 0.0 0.0 0.00 0.00 0.00 99 1010.4
20260904080053 64 0 0.0 0.0 0.00 0.00 0.00 99 1010.4
20260904075531 64 0 0.0 0.0 0.00 0.00 0.00 99 1010.5
20260904075032 64 0 0.0 0.0 0.00 0.00 0.00 99 1010.4
20260904074601 64 0 0.0 0.0 0.00 0.00 0.00 99 1010.5
20260904074033 64 0 0.0 0.0 0.00 0.00 0.00 99 1010.7
20260904073529 64 0 0.0 0.0 0.00 0.00 0.00 99 1010.5
20260904073047 64 0 0.0 0.0 0.00 0.00 0.00 99 1010.8
20260904072529 64 0 0.0 0.0 0.00 0.00 0.00 99 1010.8
20260904072029 64 0 0.0 0.0 0.00 0.00 0.00 99 1011.1
20260904071623 64 0 0.0 0.0 0.00 0.00 0.00 99 1011.2
20260904071032 64 0 0.0 0.0 0.00 0.00 0.00 99 1011.2
20260904070527 64 0 0.0 0.0 0.00 0.00 0.00 99 1011.2
20260904070141 64 0 0.0 0.0 0.00 0.00 0.00 99 1011.3
20260904070106 64 0 0.0 0.0 0.00 0.00 0.00 99 1011.3
20260904065527 64 0 0.0 0.0 0.00 0.03 0.00 99 1011.4
20260904065030 64 0 0.0 0.0 0.00 0.03 0.00 99 1011.2
20260904064604 64 0 0.0 0.0 0.00 0.03 0.00 99 1011.1
20260904064030 64 0 0.0 0.0 0.00 0.03 0.00 99 1011.1
20260904063531 63 0 0.0 0.0 0.00 0.03 0.00 99 1011.1
20260904063051 63 0 0.0 0.0 0.00 0.03 0.00 99 1011.3
20260904062529 63 0 0.0 0.0 0.00 0.03 0.00 99 1011.2
20260904062030 63 0 0.0 0.0 0.00 0.03 0.00 99 1011.3
20260904061545 63 0 0.0 0.0 0.00 0.03 0.00 99 1011.4
20260904061029 63 0 0.0 0.0 0.00 0.03 0.00 99 1011.2
20260904060529 64 0 0.0 0.0 0.00 0.03 0.00 99 1011.3
20260904060051 64 0 0.0 0.0 0.00 0.03 0.00 99 1011.4
20260904055530 64 0 0.0 0.0 0.00 0.11 0.00 99 1011.6
20260904055029 64 0 0.0 0.0 0.00 0.11 0.00 99 1011.5
20260904054546 64 0 0.0 0.0 0.00 0.11 0.00 99 1011.5
20260904054030 64 0 0.0 0.0 0.00 0.11 0.00 99 1011.6
20260904053529 64 0 0.0 0.0 0.00 0.11 0.00 99 1011.6
20260904053100 64 0 0.0 0.0 0.00 0.11 0.00 99 1011.8
20260904052530 64 0 0.0 0.0 0.00 0.11 0.00 99 1011.8
20260904052030 64 0 0.0 0.0 0.00 0.11 0.00 99 1012.0
20260904051545 64 0 0.0 0.0 0.00 0.11 0.00 99 1012.0
20260904051029 64 0 0.0 0.0 0.00 0.11 0.00 99 1012.0
20260904050528 64 0 0.0 0.0 0.00 0.11 0.00 99 1012.0
20260904050053 64 0 0.0 0.0 0.00 0.11 0.00 99 1012.0
20260904045527 64 0 0.0 0.0 0.00 0.11 0.00 99 1012.1
20260904045029 64 0 0.0 0.0 0.00 0.11 0.00 99 1012.2
20260904044546 65 0 0.0 0.0 0.00 0.11 0.00 99 1012.2
20260904044029 65 0 0.0 0.0 0.00 0.11 0.00 99 1012.0
20260904043529 65 0 0.0 0.0 0.00 0.11 0.00 99 1012.1
20260904043046 65 0 0.0 0.0 0.00 0.11 0.00 99 1012.1
20260904042530 65 0 0.0 0.0 0.00 0.11 0.00 99 1012.2
20260904042032 65 0 0.0 0.0 0.00 0.11 0.00 99 1012.2
20260904041547 65 0 0.0 0.0 0.00 0.11 0.00 99 1012.1
20260904041029 65 0 0.0 0.0 0.00 0.11 0.00 99 1012.1
20260904040530 65 0 0.0 0.0 0.00 0.11 0.00 98 1012.2
20260904040049 66 0 0.0 0.0 0.00 0.11 0.00 99 1012.1
20260904035531 66 0 0.0 0.0 0.00 0.11 0.11 99 1012.2
20260904035030 66 0 0.0 0.0 0.00 0.11 0.11 99 1012.2
20260904034544 66 0 0.0 0.0 0.00 0.11 0.11 98 1012.3
20260904034031 66 0 0.0 0.0 0.00 0.11 0.11 99 1012.4
20260904033531 66 0 0.0 0.0 0.00 0.11 0.11 99 1012.4
20260904033055 66 0 0.0 0.0 0.00 0.11 0.11 99 1012.4
20260904032529 66 0 0.0 0.0 0.00 0.11 0.11 99 1012.4
20260904032029 66 0 0.0 0.0 0.00 0.11 0.11 98 1012.5
20260904031600 67 0 0.0 0.0 0.00 0.11 0.11 98 1012.5
20260904031033 67 0 0.0 0.0 0.00 0.11 0.11 99 1012.4
20260904030529 67 0 0.0 0.0 0.00 0.11 0.11 99 1012.5
20260904030046 67 0 0.0 0.0 0.00 0.11 0.11 99 1012.5
20260904025529 67 0 0.0 0.0 0.00 0.11 0.11 99 1012.6
20260904025027 67 0 0.0 0.0 0.00 0.11 0.11 98 1012.5
20260904024552 67 0 0.0 0.0 0.00 0.11 0.11 98 1012.5
20260904024029 68 0 0.0 0.0 0.00 0.11 0.11 99 1012.6
20260904023530 68 0 0.0 0.0 0.00 0.11 0.11 99 1012.7
20260904023048 68 0 0.0 0.0 0.00 0.11 0.11 98 1012.7
20260904022527 68 0 0.0 0.0 0.00 0.11 0.11 98 1012.9
20260904022029 68 0 0.0 0.0 0.00 0.11 0.11 98 1012.8
20260904021555 68 0 0.0 0.0 0.00 0.11 0.11 98 1012.7
20260904021032 68 0 0.0 0.0 0.00 0.11 0.11 98 1012.7
20260904020527 68 0 0.0 0.0 0.00 0.11 0.11 98 1012.6
20260904020053 68 0 0.0 0.0 0.00 0.11 0.11 98 1012.7
20260904015528 68 0 0.0 0.0 0.00 0.11 0.11 98 1012.7
20260904015028 69 0 0.0 0.0 0.00 0.11 0.11 98 1012.8
20260904014548 69 0 0.0 0.0 0.00 0.11 0.11 98 1012.9
20260904014030 69 0 0.0 0.0 0.00 0.11 0.11 98 1013.0
20260904013534 69 0 0.0 0.0 0.00 0.11 0.11 98 1013.0
20260904013044 69 0 0.0 0.0 0.00 0.11 0.11 98 1012.7
20260904012532 69 0 0.0 0.0 0.00 0.11 0.11 98 1012.9
20260904012031 69 0 0.0 0.0 0.00 0.11 0.11 98 1012.8
20260904011555 69 0 0.0 0.0 0.00 0.11 0.11 98 1012.9
20260904011029 70 0 0.0 0.0 0.00 0.11 0.11 98 1012.8
20260904010532 70 0 0.0 0.0 0.00 0.11 0.11 98 1012.8
20260904010053 70 0 0.0 0.0 0.00 0.11 0.11 98 1012.9